Location: Branche des Alpilles
(43.6087°N, 4.6976°E)
Time: 15:11:15
(UTC+00:00)

Tiangong - Visible Passes

Search period start: 26 September 2021 00:00
Search period end: 06 October 2021 00:00
Orbit: 382 x 385 km, 41.5° (Epoch: 26 September)

Date Brightness Start Highest point End Pass type
(mag) Time Alt. Az. Time Alt. Az. Time Alt. Az.
26 Sep 3.8 04:00:02 10° S 04:01:20 12° SSE 04:02:37 10° SE visible
27 Sep 2.7 04:35:19 11° SW 04:37:49 27° SSE 04:40:34 10° E visible
28 Sep 3.3 03:38:24 18° SE 03:38:24 18° SE 03:40:22 10° ESE visible
29 Sep 2.0 04:13:37 29° SSW 04:14:38 38° SSE 04:17:37 10° E visible
30 Sep 3.8 03:16:36 16° ESE 03:16:36 16° ESE 03:17:34 10° E visible
30 Sep 1.4 04:48:48 14° WSW 04:51:22 57° S 04:54:29 10° E visible
01 Oct 1.7 03:51:45 47° SSE 03:51:45 47° SSE 03:54:32 10° E visible
02 Oct 1.3 04:26:53 30° WSW 04:28:12 58° S 04:31:20 10° ESE visible
03 Oct 3.2 03:29:50 26° ESE 03:29:50 26° ESE 03:31:24 10° E visible
03 Oct 1.7 05:02:02 11° W 05:04:55 42° SSW 05:07:57 10° ESE visible
04 Oct 1.3 04:05:00 53° S 04:05:01 53° S 04:08:07 10° ESE visible
05 Oct 4.4 03:08:00 11° ESE 03:08:00 11° ESE 03:08:12 10° ESE visible
05 Oct 2.1 04:40:13 21° WSW 04:41:40 31° SSW 04:44:31 10° SE visible
